Regional Weather Roundup
Issued by NWS Upton, NY

Current Version | Previous Version | Text Only | Print | Product List | Glossary On
Versions: 1 2 3 4 5 6 7 8 9 10 11 12 13 14 15 16 17 18 19 20 21 22 23 24 25 26 27 28 29 30 31 32 33 34 35 36 37 38 39 40 41 42 43 44 45 46 47 48 49 50
000
ASUS41 KOKX 040908
RWROKX

REGIONAL WEATHER ROUNDUP
NATIONAL WEATHER SERVICE NEW YORK NY
500 AM EDT MON MAY 04 2015

NOTE: "FAIR" INDICATES FEW OR NO CLOUDS BELOW 12,000 FEET WITH NO
SIGNIFICANT WEATHER AND/OR OBSTRUCTIONS TO VISIBILITY.

NYZ071-072-176-178-NJZ106-104-041000-
NEW YORK CITY METRO AREA


CITY           SKY/WX    TMP DP  RH WIND       PRES   REMARKS
CENTRAL PARK   CLEAR     57  48  72 NE5       30.19S
LAGUARDIA APRT CLEAR     56  46  69 S3        30.17R
KENNEDY INTL   CLEAR     50  47  89 CALM      30.19R
NEWARK/LIBERTY CLEAR     57  43  59 CALM      30.17R
BRNX BOT. GARD   N/A     50  48  93 CALM      30.17F
TETERBORO      CLEAR     54  42  64 CALM      30.16R
$$

NYZ177-179-078>081-041000-
LONG ISLAND NEW YORK

CITY           SKY/WX    TMP DP  RH WIND       PRES   REMARKS
FARMINGDALE    CLEAR     50  47  89 CALM      30.18S
ISLIP          CLEAR     49  47  93 SE3       30.17S
SHIRLEY        CLEAR     48  45  89 S6        30.19S
WESTHAMPTON    FOG       40  37  89 SE3       30.20S VSB 3/4
MONTAUK POINT    N/A     49  46  90 SE3       30.21S
$$

NYZ052-065-067-041000-
HUDSON VALLEY

CITY           SKY/WX    TMP DP  RH WIND       PRES   REMARKS
WHITE PLAINS   CLEAR     49  45  86 CALM      30.16S
NEWBURGH       CLEAR     50  43  76 CALM      30.17
MONTGOMERY     CLEAR     43  40  89 CALM      30.15S
POUGHKEEPSIE   CLEAR     48  41  76 CALM      30.15S
ALBANY         PTCLDY    59  39  47 S5        30.14R
$$

NJZ001-105-106-008-010-013-015-019>022-104-041000-
NEW JERSEY

CITY           SKY/WX    TMP DP  RH WIND       PRES   REMARKS
NEWARK/LIBERTY CLEAR     57  43  59 CALM      30.17R
TETERBORO      CLEAR     54  42  64 CALM      30.16R
CALDWELL       CLEAR     49  44  83 CALM      30.17S
MORRISTOWN     CLEAR     46  43  87 CALM      30.17S
SOMERVILLE     CLEAR     45  41  86 CALM      30.16R
SUSSEX         PTCLDY    45  41  86 SW3       30.18S
ANDOVER          N/A     48  44  86 CALM      30.17S
TRENTON        CLEAR     52  41  66 CALM      30.17R
MILLVILLE      CLEAR     46  44  93 CALM      30.18S
ATLANTIC CITY  CLEAR     49  45  86 CALM      30.18S
WRIGHTSTOWN    CLEAR     50  46  87 CALM      30.16R
TOMS RIVER     CLEAR     45  41  87 CALM      30.19S
BELMAR         CLEAR     54  43  66 SW3       30.18R
$$

PAZ047>061-062-071-041000-
EASTERN PENNSYLVANIA

CITY           SKY/WX    TMP DP  RH WIND       PRES   REMARKS
PHILADELPHIA   CLEAR     57  49  74 SW3       30.19R
ALLENTOWN      CLEAR     49  42  77 CALM      30.17S
SCRANTON       PTCLDY    55  37  50 CALM      30.16R
$$

CTZ002-004>006-009-010-012-RIZ004-006-007-MAZ004-011-015-041000-
SOUTHERN NEW ENGLAND
 IN CT

CITY           SKY/WX    TMP DP  RH WIND       PRES   REMARKS
BRADLEY INTL   PTCLDY    48  43  82 CALM      30.16S
HARTFORD       CLEAR     47  32  56 SE8       30.17S
DANBURY        CLEAR     44  38  79 SW3       30.19R
WTRBRY/OXFORD  MOCLDY    48  39  71 CALM      30.20R
BRIDGEPORT     CLEAR     49  46  90 CALM      30.18S
MERIDEN        CLEAR     44  41  89 CALM      30.18S
NEW HAVEN      CLEAR     45  43  93 CALM      30.18S
CHESTER        FAIR      46  45  93 S3        30.19S
GROTON         PTCLDY    44  42  93 CALM      30.20R FOG
WILLIMANTIC    CLEAR     43  40  89 CALM      30.19S

 IN RI

CITY           SKY/WX    TMP DP  RH WIND       PRES   REMARKS
PROVIDENCE     CLEAR     46  44  93 S6        30.19S
BLOCK ISLAND   CLEAR     48  45  87 SW12      30.20S
WESTERLY       CLEAR     42  40  92 CALM      30.20S

 IN MA

CITY           SKY/WX    TMP DP  RH WIND       PRES   REMARKS
BOSTON         PTCLDY    50  44  80 SW8       30.16S
WORCESTER      CLEAR     57  37  47 W14       30.16S
WESTFIELD      CLEAR     45  42  89 CALM      30.17R
PROVINCETOWN   CLEAR     50  46  87 S13       30.19S
NANTUCKET      CLEAR     49  45  86 SW7       30.22R
$$

ANZ330-335-338-340-345-350-353-355-041000-
COASTAL MARINE OBSERVATIONS


STATION/POSITION TIME  SKY/WX   TEMP    WIND        PRES    VSBY  WAVE
                                AIR SEA DIR/SP/G                  HT/PER
                 (UTC)          (F)     (DEG/KT/KT) (MB)    (MI)  (FT/S)
NY HARB ENTRANCE 0850            52 51  170/  6/  6 1021.8          3/ 8
4S FIRE IS       0803               49                N/A           3/ 8
20S FIRE ISLAND  0850            49 46  200/  6/  8 1022.4          4/ 8
GREAT SOUTH BAY  0800            53 57  230/  6/  8   N/A
23SW MTP         0850            47 45  180/  6/  6 1022.7          4/ 8
HUDSON CANYON    NOT AVBL
EXECUTION ROCKS  NOT AVBL
WESTERN LI SOUND NOT AVBL
CENTRAL LI SOUND NOT AVBL
EASTERN LI SOUND 0800            46     170/  2/  4   N/A
ROBBINS REEF     0800            57     180/  8/  8 1020.3
$$


>>>>>>>>>>>>>>>>>>>>>>>>>>>> KEY <<<<<<<<<<<<<<<<<<<<<<<<<<<
>                                                          <
>     SKY/WX - SKY CONDITION/PRESENT WEATHER               <
>     TMP    - TEMPERATURE IN FAHRENHEIT                   <
>     DP     - DEWPOINT IN FAHRENHEIT                      <
>     RH     - RELATIVE HUMIDITY IN PERCENT                <
>     WIND   - DIRECTION AND SPEED IN MPH                  <
>     PRES   - MEAN SEA LEVEL PRESSURE IN INCHES OF HG     <
>     WCI    - WIND CHILL INDEX                            <
>     VSB    - VISIBILITY IN MILES                         <
>     HX     - HEAT INDEX                                  <
>     TC     - TEMPERATURE IN CELSIUS                      <
>     VRB    - VARIABLE WIND DIRECTION                     <
>                                                          <
>>>>>>>>>>>>>>>>>>>>>>>>>>>> KEY <<<<<<<<<<<<<<<<<<<<<<<<<<<




USA.gov is the U.S. government's official web portal to all federal, state and local government web resources and services.